MOS 1 Rocket - Orbit

View from above orbital plane
View from above orbital plane
View from above satellite
View from above satellite

Ground track
Ground track

The orbit data is extracted from the following two-line orbital elements,

1 17528U 87018B   13139.43519674  .00000355  00000-0  89949-4 0   800
2 17528 097.4822 247.7362 0153699 283.5193 116.7396 14.49466525383959
Epoch (UTC): 19 May 2013 10:26:40
Eccentricity: 0.0153699
inclination: 97.4822°
perigee height: 618 km
apogee height: 836 km
right ascension of ascending node: 247.7362°
argument of perigee: 283.5193°
revolutions per day: 14.49466525
mean anomaly at epoch: 116.7396°
orbit number at epoch: 38395

The dashed part of the orbit path shows where the satellite is in the earth's shadow,  

Developed and maintained by Chris Peat, Heavens-Above GmbH. Please read the updated FAQ before sending e-mail. Imprint. DLR